Regional Weather Roundup
Issued by NWS

Home | Current Version | Previous Version | Text Only | Print | Product List | Glossary On
Versions: 1 2 3 4 5 6 7 8 9 10 11 12 13 14 15 16 17 18 19 20 21 22 23 24 25 26 27 28 29 30 31 32 33 34 35 36 37 38 39 40 41 42 43 44 45 46 47 48 49 50
000
ASUS43 KLSX 312159
RWRMO

WEATHER SUMMARY FOR MISSOURI
NATIONAL WEATHER SERVICE SPRINGFIELD MO
400 PM CST SAT JAN 31 2015

NOTE: "FAIR" INDICATES FEW OR NO CLOUDS BELOW 12,000 FEET WITH NO
       SIGNIFICANT WEATHER AND/OR OBSTRUCTIONS TO VISIBILITY.
       CURRENT SKY AND/OR WEATHER CONDITIONS ARE NOT AVAILABLE FOR
       CHILLICOTHE AND FARMINGTON.

MOZ001>031-035>038-043-044-053-054-312300-
...NORTHERN AND WESTERN MISSOURI...

CITY           SKY/WX    TMP DP  RH WIND       PRES   REMARKS
KANSAS CTY INT LGT RAIN  37  35  92 S13       30.04F FOG     WCI  29
KANSAS C DTWN  LGT RAIN  39  35  86 SE6       30.06F
LEE`S SUMMIT   LGT RAIN  38  35  89 S13       30.06F WCI  30
ST JOSEPH      LGT RAIN  37  35  92 S12       30.05F FOG     WCI  29
CHILLICOTHE      N/A     34  32  92 SE5       30.12F WCI  30
KIRKSVILLE     LGT RAIN  37  37 100 S9        30.14F FOG

$$
MOZ066>068-077>081-088>096-101>105-312300-
...SOUTHWEST MISSOURI...

CITY           SKY/WX    TMP DP  RH WIND       PRES   REMARKS
SPRINGFIELD    CLOUDY    45  21  38 SE16G22   30.07F
JOPLIN         LGT RAIN  47  24  40 S8        30.05F

$$
MOZ032>034-039>042-045>050-055>058-069>072-312300-
...CENTRAL MISSOURI...

CITY           SKY/WX    TMP DP  RH WIND       PRES   REMARKS
COLUMBIA       LGT RAIN  36  35  96 E13       30.14F WCI  27
JEFFERSON CITY LGT RAIN  38  35  89 E9        30.16F
ROLLA          CLOUDY    37  31  78 E8        30.14S
SEDALIA        CLOUDY    39  36  89 SE12      30.11F
OSAGE BEACH    CLOUDY    39  30  70 E8        30.13F

$$
MOZ051-052-059>065-312300-
...EAST CENTRAL MISSOURI...

CITY           SKY/WX    TMP DP  RH WIND       PRES   REMARKS
ST LOUIS INTL  CLOUDY    46  26  45 S3        30.21F
SPIRIT OF STL  CLOUDY    46  24  42 S5        30.21F
ST CHARLES     CLOUDY    41  32  70 E3        30.21F

$$
MOZ072>076-082>087-097>100-106>115-312300-
...SOUTH CENTRAL AND SOUTHEAST MISSOURI...

CITY           SKY/WX    TMP DP  RH WIND       PRES   REMARKS
CAPE GIRARDEAU CLOUDY    42  29  59 CALM      30.25F
FARMINGTON     CLOUDY    41  21  45 S8        30.25R
POPLAR BLUFF   CLOUDY    42  29  59 E6        30.23F
WEST PLAINS    CLOUDY    44  19  36 SE8       30.15F

$$



USA.gov is the U.S. government's official web portal to all federal, state and local government web resources and services.